COSMOS 1275 DEB, 12698

Orbit data source: Space-Track

COSMOS 1275 DEB, 12698 is space debris in LEO originally from a launch on Thu, 04 Jun 1981 UTC launched from the Plesetsk Missile And Space Complex (PKMTR). Debris objects in space refer to the collection of defunct objects orbiting the Earth. Examples of debris include non-operational satellites, rocket bodies, and fragments generated from explosions, collisions, or faulty payload assembly.

Loading next visibility...
Identifier
12698, 1981-053AS
Orbit
LEO
Country
Flag of CISCIS
Related business
Manufacturer
Unknown
Mission
Spacecraft
Bus & Motor
Unknown
Mass
Unknown
Launch date (UTC)
1981-06-04 (45 years ago)
Launch vehicle
Unknown
Launch site
Plesetsk Missile And Space Complex (PKMTR)
Object type
Payload
Rocket body
Debris
Shape & HBR
Unknown shape, 0.1 m
Radar Cross Section
Small (<0.1 m²)

Expand to show TLE details & history
Last TLE update: 19 hours ago

TLE from 19 hours ago
0 COSMOS 1275 DEB
1 12698U 81053AS  26145.26736733  .00004993  00000-0  17435-2 0  9995
2 12698  82.8974  69.5956 0012492  70.8382 289.4159 14.35070084288202
Epoch: 2026-05-25T06:25Z
TLE epoch observation values (Epoch: 2026-05-25T06:25:00.537Z)
Latitude
0.00004°
Longitude
90.48576°
Altitude
774.855 km
Speed
7.468 km/s
True Right ascension
04h 38m 22s
True Declination
0° 00' 00"
Sunlit
Object was in daylight at epoch
Visualization orbit readout
Latitude
Unknown
Longitude
Unknown
Altitude
Unknown
Speed
Unknown
Apparent Right ascension
Unknown
Apparent Declination
Unknown
Sunlit
N/A
Visualization observer readout
Local Sidereal Time
10:18:25
Azimuth
Unknown
Elevation
Unknown
Doppler factor
Unknown
Orbital elements
Apogee altitude
780.833 km
Perigee altitude
762.97 km
Semi-major axis
7,150.038 km
Eccentricity
0.00125
Inclination
82.8974°
RAAN
69.5956°
Arg. of periapsis
70.8382°
True anomaly
289.28082°
Mean anomaly
289.4159°
Eccentric anomaly
289.34837°
Mean motion
3.58989 °/min
Orbital period
100.28 mins
BSTAR
0.0017435
Loading maneuver chart data...
Computing Atmospheric mass density...

Documentation

Showing up to 5 results
|